www.pogodaiklimat.ru
ПОГОДА в Котобато

Архив погоды в Котобато (Филиппины)

Время
(UTC), дата
15 20.02
18 20.02
21 20.02
00 21.02
03 21.02
06 21.02
09 21.02
12 21.02
15 21.02
18 21.02
21 21.02
00 22.02
03 22.02
06 22.02
09 22.02
12 22.02
15 22.02
18 22.02
21 22.02
00 23.02
03 23.02
06 23.02
09 23.02
12 23.02
15 23.02
18 23.02
21 23.02
00 24.02
03 24.02
06 24.02
09 24.02
12 24.02
15 24.02
18 24.02
21 24.02
00 25.02
03 25.02
06 25.02
09 25.02
12 25.02
15 25.02
18 25.02
21 25.02
00 26.02
03 26.02
06 26.02
09 26.02
12 26.02
15 26.02
18 26.02
21 26.02
00 27.02
03 27.02
06 27.02
09 27.02
Ветер
(напр.,м/с)
Видим. Явления Облачность Т
(С)
Тd
(С)
f
(%)
Тe
(С)
Тes
(С)
Комфортность P
(гПа)
Po
(гПа)
Тmin
(С)
Tmax
(С)
R
(мм)
R24
(мм)
S
(см)
ЮВ 1 12 км 6/3 540 м [Cu med, cong Ci sp] +26.9 +24.0 84 +37 +37 очень душно 1011.8 1005.1
ЮВ 2 12 км 5/3 540 м [Cu med, cong Ci sp] +25.5 +23.5 89 +35 +35 очень душно 1010.3 1003.6
Ю 1 12 км 5/3 540 м [Cu med, cong Ci sp] +24.5 +23.0 91 +32 +32 очень душно 1010.4 1003.7
ЮВ 3 15 км 4/1 540 м [Cu hum Ci fib] +27.6 +23.9 80 +38 +42 очень душно 1012.1 1005.5 +23.0
В 4 15 км 6/3 540 м [Cu med, cong Ci sp] +32.4 +23.9 61 +44 +53 очень душно 1011.7 1005.2
С 2 15 км осадки на расстоянии 6/3 540 м [Sc Ci sp] +34.4 +24.3 56 +47 +56 очень душно 1009.3 1002.8
С 2 12 км 6/3 540 м [Sc Ci sp] +31.4 +24.1 65 +43 +44 очень душно 1008.7 1002.2
ЮЗ 2 10 км слаб. ливневой дождь 10/5 540 м [Cb cap Ac As] +28.4 +24.3 78 +40 +40 очень душно 1010.9 1004.3 +35.4
З 3 12 км осадки на расстоянии 10/3 540 м [Sc Ac As] +27.1 +23.6 81 +37 +37 очень душно 1011.0 1004.3
штиль 0 12 км 5/3 540 м [Cu med, cong Ci sp] +25.8 +23.0 85 +34 +34 очень душно 1009.6 1002.9
В 2 12 км осадки на расстоянии 10/3 540 м [Sc Ac As] +25.2 +21.9 82 +32 +32 очень душно 1010.5 1003.8
В 3 12 км 8/3 540 м [Cu med, cong Ac As Cs] +28.0 +23.7 77 +38 +41 очень душно 1012.1 1005.5 +22.8 0.0 0.0
Ю 2 12 км осадки на расстоянии 10/3 540 м [Sc Ac As] +31.3 +23.5 63 +42 +46 очень душно 1012.1 1005.5
С 4 12 км осадки на расстоянии 10/3 540 м [Sc Ac As Cs] +32.0 +24.3 64 +44 +48 очень душно 1009.9 1003.4
СЗ 2 12 км {ливн. дождь} 6/3 540 м [Cb calv Ci sp] +30.0 +24.3 72 +42 +43 очень душно 1009.5 1002.9 0.0
ЮВ 2 10 км слаб. ливневой дождь {гроза} 10/5 540 м [Cb cap Ac As] +27.4 +24.2 83 +38 +38 очень душно 1011.2 1004.6 +33.0 0.0
ЮЗ 2 12 км осадки на расстоянии {гроза, ливн. дождь} 10/3 540 м [Sc Ac As Cs] +26.1 +23.8 87 +36 +36 очень душно 1012.1 1005.4 0.0
З 2 12 км {гроза, ливн. дождь} 6/3 540 м [Cu med, cong Ci sp] +25.0 +23.1 89 +33 +33 очень душно 1010.1 1003.4 0.0
штиль 0 12 км {туман} 5/3 540 м [Cu med, cong Ci sp] +24.0 +22.9 94 +32 +32 очень душно 1010.8 1004.1
Ю 3 15 км 5/3 540 м [Cu med, cong Ci sp] +27.7 +23.3 77 +37 +41 очень душно 1012.3 1005.7 +23.2 0.0 0.0
ЮВ 3 15 км 6/3 540 м [Cu med, cong Ci sp] +30.8 +24.2 68 +43 +53 очень душно 1012.0 1005.4
СЗ 2 15 км 8/3 540 м [Sc Ac As Cs] +32.4 +24.5 63 +45 +51 очень душно 1009.7 1003.2
Ю 2 12 км {гроза, дождь} 9/3 540 м [Cb cap Ac As Cs] +28.7 +24.3 77 +40 +40 очень душно 1010.2 1003.6 15
ЮЗ 2 12 км слаб. ливневой дождь {гроза} 10/5 540 м [Cb cap Ac As] +26.8 +24.4 87 +38 +38 очень душно 1012.1 1005.4 +33.5 15
Ю 1 12 км мгла {ливн. дождь} 9/3 540 м [Sc Ac As Cs] +25.8 +24.0 90 +36 +36 очень душно 1012.7 1006.0 0.0
Ю 1 10 км слаб. ливневой дождь {туман} 10/5 540 м [Cb cap Ac As] +25.4 +23.2 88 +34 +34 очень душно 1010.9 1004.2 3
штиль 0 10 км мгла {ливн. дождь} 10/3 540 м [Sc Ac As Cs] +24.8 +23.0 90 +33 +33 очень душно 1011.0 1004.3 0.0
Ю 2 12 км {ливн. дождь, мгла} 9/3 540 м [Sc Ac As Cs] +27.1 +24.0 83 +37 +40 очень душно 1012.3 1005.6 +23.4 18 18.0
СВ 4 15 км 6/3 540 м [Cu med, cong Ci sp] +32.0 +24.0 63 +44 +53 очень душно 1011.9 1005.3
СЗ 3 15 км 6/3 540 м [Cb calv Ac trans Ci sp] +33.5 +24.6 60 +47 +53 очень душно 1008.9 1002.4
С 2 15 км 4/1 540 м [Cu med, cong Ci sp] +31.2 +24.6 68 +44 +44 очень душно 1008.6 1002.1
Ю 2 12 км 6/3 540 м [Cb calv Ac As Ci sp] +29.0 +23.7 73 +40 +40 очень душно 1010.3 1003.7 +34.6
ЮВ 2 12 км 8/3 540 м [Sc Ac As Cs] +26.0 +24.1 89 +36 +36 очень душно 1011.4 1004.7
Ю 2 12 км 5/3 540 м [Cu med, cong Ci sp] +24.8 +23.0 90 +33 +33 очень душно 1010.2 1003.5
Ю 3 12 км 5/3 540 м [Cu med, cong Ci sp] +24.6 +22.7 89 +32 +32 очень душно 1010.1 1003.4
ЮВ 2 15 км 3/1 540 м [Cu hum Ci fib] +28.4 +23.0 73 +38 +44 очень душно 1011.5 1004.9 +23.0
ЮВ 4 15 км 1/1 540 м [Cu hum] +32.2 +24.5 64 +45 +57 очень душно 1010.1 1003.6
Ю 2 15 км 3/1 540 м [Cu hum Ci fib] +34.2 +24.5 57 +47 +59 очень душно 1007.2 1000.7
СЗ 1 15 км {туман} 4/3 540 м [Cu med, cong Ci fib] +33.0 +23.9 59 +45 +45 очень душно 1006.8 1000.3
З 2 12 км {туман} 4/3 540 м [Cu med, cong Ci fib] +28.8 +23.7 74 +39 +39 очень душно 1009.0 1002.4 +35.4
Ю 1 12 км {туман} 9/3 540 м [Cu med, cong Ac As] +27.6 +23.6 79 +38 +38 очень душно 1010.5 1003.9
Ю 2 12 км {туман} 5/3 540 м [Cu med, cong Ac As] +26.8 +23.0 80 +36 +36 очень душно 1009.7 1003.0
Ю 2 15 км {туман} 4/1 540 м [Cu hum Ci fib] +25.4 +22.7 85 +33 +33 очень душно 1010.3 1003.6
Ю 3 15 км мгла 4/1 540 м [Cu hum Ci fib] +28.6 +24.1 77 +40 +44 очень душно 1011.3 1004.7 +23.4
ЮВ 2 15 км {мгла} 4/1 540 м [Cu hum Ci fib] +32.4 +23.9 61 +44 +61 очень душно 1010.0 1003.5
З 2 12 км {мгла} 4/3 540 м [Cu med, cong Ci fib] +33.4 +24.4 59 +46 +55 очень душно 1007.4 1000.9
СЗ 2 12 км {мгла} 8/3 540 м [Cu med, cong Ac As Cs] +31.3 +23.7 64 +42 +43 очень душно 1007.5 1001.0
ЮЗ 1 12 км {мгла} 8/3 540 м [Cu med, cong Ac As Cs] +29.4 +23.8 72 +40 +40 очень душно 1008.8 1002.2 +34.4
Ю 3 12 км {мгла} 6/3 540 м [Cu med, cong Ac As] +27.6 +23.6 79 +38 +38 очень душно 1010.0 1003.4
Ю 1 12 км {мгла} 8/3 540 м [Cu med, cong Ac As] +26.0 +23.3 85 +35 +35 очень душно 1009.2 1002.5
Ю 1 12 км {мгла} 8/3 540 м [Cu med, cong Ci sp] +25.0 +22.5 86 +33 +33 очень душно 1009.5 1002.8
Ю 2 12 км 9/3 540 м [Cb cap Ac As Cs] +27.4 +24.2 83 +38 +41 очень душно 1011.2 1004.6 +23.2
ЮВ 2 12 км 9/3 540 м [Cb cap Ac As Cs] +29.8 +24.0 71 +41 +49 очень душно 1010.7 1004.1
ЮЗ 1 12 км {туман} 8/3 540 м [Cu med, cong Ac As Ci sp] +32.0 +24.0 63 +44 +51 очень душно 1008.6 1002.1
ЮЗ 1 10 км слаб. ливневой дождь 9/4 540 м [Cb cap Ac As Cs] +27.4 +24.2 83 +38 +39 очень душно 1009.4 1002.8 4
Местоположение метеостанции Котобато (Филиппины): широта 7.17 долгота 124.22 высота над уровнем моря 58 м.
В архиве по умолчанию представлена погода в Котобато за последнюю неделю. Архивные данные за месяц целиком и за предыдущие месяцы, начиная с января 2011 года, Вы можете получить, выбрав интересующий диапазон дат из раскрывающегося списка и нажав кнопку "Найти!".
*Определитесь, кто Вы:
Внимание! Время в таблицах - всемирное. Для получения местного времени необходимо прибавить поправку, которая равна 8 ч.
Некоторые строки с данными для отдельных станций могут быть выделены курсивом. Это означает, что фактические данные отсутствуют по различным причинам, а приведенные значения являются расчетными модельными данными для данного пункта наблюдений.
Смотрите также архив погоды в соседних городах и на ближайших метеорологических станциях:
Партнеры нашего сайта:      
Пояснения к столбцам:
  • Ветер - указаны скорость ветра в м/с - средняя за 10 мин, порывы в срок и между сроками (в фигурных скобках) и направление, откуда дует ветер: С - северный,
  • СВ - северо-восточный, В - восточный, ЮВ - юго-восточный, Ю - южный, ЮЗ - юго-западный, З - западный, СЗ - северо-западный.
  • Видимость - горизонтальная дальность видимости в метрах или километрах. При видимости от 1 до 10 км при отсутствии осадков обычно наблюдается дымка, при ухудшении видимости до 1 км и менее - туман. В сухую погоду видимость может ухудшаться дымом, пылью или мглою.
  • Явления - указаны атмосферные явления, наблюдавшиеся в срок или в последний час перед сроком; фигурными скобками обозначены явления, наблюдавшиеся между сроками (за 1-3 часа до срока); квадратными скобками обозначены град или гололедные отложения с указанием их диаметра в мм.
  • Облачность - указаны через наклонную черту общая и нижняя облачность в баллах и высота нижней границы облаков в метрах; квадратными скобками обозначены формы облаков: Ci - перистые, Cs - перисто-слоистые, Cc - перисто-кучевые, Ac - высококучевые, As - высокослоистые, Sc - слоисто-кучевые, Ns - слоисто-дождевые, Cu - кучевые, Cb - кучево-дождевые. Подробнее классификацию облаков см. в Атласе облаков (PDF).
  • T - Температура воздуха - температура, измеренная на высоте 2 м над землей.
  • Td - Температура точки росы - температура, при понижении до которой содержащийся в воздухе водяной пар достигнет насыщения.
  • f - Относительная влажность воздуха - влажноcть воздуха, измеренная на высоте 2 м над землей.
  • Te - Эффективная температура - температура, которую ощущает одетый по сезону человек в тени. Характеристика душности погоды. При расчете учитывается влияние влажности воздуха и скорости ветра на теплоощущения человека.
  • Tes - Эффективная температура на солнце - температура, которую ощущает человек, с поправкой на солнечный нагрев. Характеристика знойности погоды. Зависит от высоты солнца над горизонтом, облачности и скорости ветра. Ночью, в пасмурную погоду, а также при ветре 12 м/с и более поправка равна нулю.
  • P - Атмосферное давление - приведенное к уровню моря атмосферное давление.
  • Po - Атмосферное давление - измеренное на уровне метеостанции атмосферное давление.
  • Tmin - Минимальная температура - минимум температуры воздуха на высоте 2 м над землей.
  • Tmax - Максимальная температура - максимум температуры воздуха на высоте 2 м над землей.
  • R - Количество осадков - Количество выпавших осадков за период времени, мм. При наведении курсора мыши на число - период времени, за который выпало указанное количество осадков.
  • R24 - Количество осадков - Количество выпавших осадков за 24 часа, мм.
  • S - Снежный покров - Высота снежного покрова, см. При наведении курсора мыши на число - состояние снежного покрова и степень покрытия местности в баллах.